Volver al catálogo

COSMOS 397 DEB

ActivoLEO
NORAD 5010·DEBRIS·🇷🇺 Russia

Lanzado Feb 25, 1971 desde Baikonur Cosmodrome

Loading…

Próximos Pases (próximas 24 horas)

TLE

ActualizadoSource: Space-Track

Época: Sep 13, 2026, 23:46 UTC

1 05010U 71015D   26256.99042448  .00001514  00000-0  43271-3 0  9992
2 05010  65.8347 115.1347 0615721 222.4838 132.6996 13.72997115661053

Sigue COSMOS 397 DEB en tiempo real con AllMySat

Download on the App Store